Hourly Data Report for October 06, 2017

All times are specified in Local Standard Time (LST). Add 1 hour to adjust for Daylight Saving Time where and when it is observed.

KEJIMKUJIK 1
NOVA SCOTIA

44°24'11.020" N
65°12'11.070" W
125.00 m
8202592
71599
WKG

Download Data

Hourly Data (October 2017)
Hourly Data Report for October 6, 2017
Temp Definition
°C
Dew Point Temp Definition
°C
Rel Hum Definition
%
Wind Dir Definition
10's deg

Wind Spd Definition
km/h
Visibility Definition
km
Stn Press Definition
kPa
Hmdx Definition


Wind Chill Definition


Weather Definition


TIME
00:00 9.2 7.9 92 17 5   99.93     LegendNANA
01:00 8.8 7.4 91 20 6   99.94     LegendNANA
02:00 8.7 7.5 92 23 4   99.94     LegendNANA
03:00 9.1 7.8 92 26 3   99.96     LegendNANA
04:00 10.5 9.3 93 28 2   99.97     LegendNANA
05:00 10.2 9.2 93 31 3   100.01     LegendNANA
06:00 9.4 8.4 93 31 4   100.07     LegendNANA
07:00 9.6 8.6 94 32 4   100.12     LegendNANA
08:00 10.7 9.6 93 31 4   100.18     LegendNANA
09:00 13.3 11.1 87 32 4   100.20     LegendNANA
10:00 15.9 9.6 66 34 5   100.17     LegendNANA
11:00 16.9 8.6 58 32 5   100.19     LegendNANA
12:00 18.4 8.3 52 28 6   100.21     LegendNANA
13:00 18.3 7.7 50 30 8   100.16     LegendNANA
14:00 14.4 11.1 80 32 5   100.23     LegendNANA
15:00 14.1 11.5 85 26 5   100.20     LegendNANA
16:00 13.9 11.5 86 27 4   100.20     LegendNANA
17:00 13.7 11.8 88 28 3   100.20     LegendNANA
18:00 13.0 11.1 89 27 4   100.21     LegendNANA
19:00 12.6 11.1 91 27 2   100.25     LegendNANA
20:00 11.8 10.4 91 25 5   100.29     LegendNANA
21:00 10.6 9.4 92 24 4   100.33     LegendNANA
22:00 9.9 8.9 93 29 3   100.41     LegendNANA
23:00 9.4 8.4 94 26 4   100.49     LegendNANA

Notes on Data Quality.

Legend

  • E = Estimated
  • M = Missing
  • NA = Not Available
  • ‡ = Partner data that is not subject to review by the National Climate Archives
Date modified: